Content
SEND FEEDBACK

Daily
Averages
Monthly
Summary
United States of America

NEW YORK - UPPER EAST SIDE, NEW YORK


Home > North America > United States > New York
Elevation: 132 feet     Latitude: 40 47N     Longitude: 073 58W

WEATHER
 
SELECT A DAY
Number of Records: 147,991;   Date Range: 11/1/95 - 7/20/14
 
SHARE

PRINT THIS DATA

[ ← Previous Day ]
WEATHER ALMANAC - FEBRUARY 8, 2013
[ Next Day → ]
[ °C ]   °F
Weather ElementAverageHighLow
Temperature31.9 °F34 °F (9:51 am)26.6 °F (11:46 pm)
Dewpoint28.7 °F30.9 °F (8:38 am)23 °F (3:51 am)
Humidity88.5 %100 % (11:46 pm)69 % (3:51 am)
Barometer29.85 in30.28 in (1:51 am)29.64 in (7:51 pm)
Wind Speed13.7 mph21.9 mph (12:51 pm)
Wind Gust35.7 mph (11:51 am)
Weather ElementAverage
Visibility2.7 mi
Wind DirectionENE (57.3 °)

Weather ElementTotal
Precipitation1.89 in
Heating Degree Days34.7 (Base 65)
Averaged from 48 records on February 8, 2013
WEATHER CONDITIONS BREAKOUT
WIND DIRECTION BREAKOUT
WEATHER BY HOUR - FEBRUARY 8, 2013
[ °C ]   °F
Local TimeTemperatureDewpointHumidityBarometerVisibilityWind DirectionWind SpeedGust SpeedPrecipitationEventsConditions
1:51 AM33.1 °F24.1 °F70 %30.28 in10.0 miENE (70°)8.1 mphOvercast
2:51 AM33.1 °F24.1 °F70 %30.25 in10.0 miENE (70°)8.1 mphOvercast
3:51 AM32.0 °F23.0 °F69 %30.22 in10.0 miEast (100°)8.1 mph19.6 mphOvercast
4:51 AM32.0 °F24.1 °F73 %30.19 in10.0 miEast (80°)13.8 mph21.9 mphOvercast
5:51 AM32.0 °F27.0 °F82 %30.16 in10.0 miENE (70°)20.7 mph25.3 mphOvercast
6:17 AM32.0 °F27.0 °F82 %30.17 in10.0 miENE (70°)15.0 mph25.3 mphOvercast
6:37 AM32.0 °F28.0 °F85 %30.16 in2.5 miEast (80°)10.4 mph20.7 mph0.00 inSnowLight Snow
6:51 AM32.0 °F28.0 °F85 %30.13 in4.0 miENE (60°)13.8 mph24.2 mph0.01 inOvercast
7:09 AM32.0 °F28.9 °F88 %30.15 in1.8 miENE (70°)13.8 mph25.3 mph0.00 inSnowLight Snow
7:51 AM32.0 °F30.0 °F92 %30.12 in0.5 miENE (70°)12.7 mph23.0 mph0.02 inFog-SnowLight Snow
8:38 AM33.1 °F30.9 °F92 %30.11 in1.2 miENE (70°)12.7 mph0.03 inSnowLight Snow
8:51 AM33.1 °F30.9 °F92 %30.08 in1.2 miENE (70°)13.8 mph21.9 mph0.03 inSnowLight Snow
9:51 AM34.0 °F30.9 °F89 %30.04 in2.0 miENE (70°)13.8 mph23.0 mph0.05 inSnowLight Snow
10:01 AM34.0 °F30.9 °F89 %30.05 in3.0 miENE (70°)17.3 mph26.5 mph0.01 inSnowLight Snow
10:51 AM34.0 °F30.9 °F89 %29.99 in4.0 miENE (70°)18.4 mph32.2 mph0.04 inSnowLight Snow
11:51 AM33.1 °F30.9 °F92 %29.93 in4.0 miENE (70°)18.4 mph35.7 mph0.06 inRainLight Rain
12:42 PM33.1 °F30.9 °F92 %29.89 in2.5 miENE (60°)17.3 mph31.1 mph0.08 inRainRain
12:51 PM33.1 °F30.0 °F89 %29.86 in2.5 miENE (70°)21.9 mph32.2 mph0.09 inRainRain
1:09 PM33.1 °F30.0 °F89 %29.86 in3.0 miENE (60°)12.7 mph28.8 mph0.03 inRainLight Rain
1:51 PM33.1 °F30.0 °F89 %29.80 in4.0 miENE (60°)15.0 mph34.5 mph0.08 inOvercast
2:04 PM33.1 °F30.0 °F89 %29.81 in2.5 miENE (70°)18.4 mph29.9 mph0.01 inSnowLight Snow
2:28 PM33.1 °F30.0 °F89 %29.78 in1.5 miENE (70°)12.7 mph27.6 mph0.05 inSnowLight Snow
2:37 PM33.1 °F30.0 °F89 %29.77 in3.0 miNE (50°)13.8 mph27.6 mph0.06 inSnowLight Snow
2:51 PM33.1 °F30.0 °F89 %29.75 in2.5 miENE (60°)20.7 mph31.1 mph0.07 inSnowLight Snow
3:09 PM33.1 °F30.0 °F89 %29.76 in1.0 miENE (60°)17.3 mph34.5 mph0.03 inSnowLight Snow
3:17 PM33.1 °F30.0 °F89 %29.75 in0.8 miENE (60°)19.6 mph35.7 mph0.04 inSnowLight Snow
3:51 PM33.1 °F30.0 °F89 %29.71 in1.5 miENE (60°)18.4 mph27.6 mph0.12 inSnowLight Snow
4:33 PM32.0 °F30.9 °F96 %29.72 in0.2 miNE (50°)11.5 mph21.9 mph0.08 inFog-SnowSnow
4:51 PM32.0 °F30.9 °F96 %29.70 in0.2 miNE (50°)15.0 mph25.3 mph0.12 inFog-SnowSnow
5:51 PM32.0 °F30.0 °F92 %29.67 in1.0 miNNE (30°)12.7 mph21.9 mph0.09 inSnowLight Snow
6:23 PM32.0 °F30.0 °F92 %29.68 in1.8 miNE (40°)11.5 mph20.7 mph0.02 inSnowLight Snow
6:26 PM32.0 °F30.0 °F92 %29.68 in1.8 miNE (40°)16.1 mph24.2 mph0.02 inSnowLight Snow
6:50 PM32.0 °F28.9 °F88 %29.65 in2.5 miNNE (30°)11.5 mph28.8 mph0.03 inSnowLight Snow
6:51 PM32.0 °F28.9 °F88 %29.65 in2.5 miNNE (30°)11.5 mph28.8 mph0.03 inSnowLight Snow
6:57 PM32.0 °F28.9 °F88 %29.67 in2.0 miNNE (30°)15.0 mph25.3 mph0.00 inSnowLight Snow
7:04 PM30.9 °F28.9 °F92 %29.67 in1.2 miNNE (30°)13.8 mph28.8 mph0.01 inSnowLight Snow
7:20 PM30.9 °F28.9 °F92 %29.67 in0.8 miNNE (30°)11.5 mph24.2 mph0.02 inSnowLight Snow
7:44 PM30.9 °F28.0 °F89 %29.66 in0.8 miNNE (20°)11.5 mph24.2 mph0.04 inSnowLight Snow
7:51 PM30.0 °F28.0 °F92 %29.64 in0.8 miNE (40°)15.0 mph26.5 mph0.05 inSnowLight Snow
8:31 PM30.0 °F28.0 °F92 %29.65 in1.0 miNNE (30°)11.5 mph23.0 mph0.03 inSnowLight Snow
8:38 PM30.0 °F28.0 °F92 %29.66 in1.0 miNNE (30°)13.8 mph24.2 mph0.04 inSnowLight Snow
8:51 PM30.0 °F27.0 °F88 %29.64 in1.0 miNNE (30°)16.1 mph25.3 mph0.05 inSnowLight Snow
9:13 PM30.0 °F27.0 °F88 %29.65 in0.8 miNNE (30°)13.8 mph27.6 mph0.01 inSnowLight Snow
9:22 PM30.0 °F28.0 °F92 %29.66 in0.8 miNNE (20°)9.2 mph24.2 mph0.01 inSnowLight Snow
9:51 PM30.0 °F28.0 °F92 %29.67 in0.5 miVariable5.8 mph0.03 inFog-SnowSnow
10:51 PM28.9 °F27.0 °F92 %29.70 in0.5 miNorth (350°)8.1 mph0.07 inFog-SnowSnow
11:46 PM26.6 °F26.6 °F100 %29.76 in0.2 miVariable4.6 mph0.11 inFog-SnowHeavy Snow
11:51 PM27.0 °F25.0 °F92 %29.74 in0.2 miNorth0.12 inFog-SnowHeavy Snow
Hourly data recorded from KNYC, located miles away from New York - Upper East Side, New York







STORIES FROM OUR PARTNERS